Skip Page Navigation
NASA JPL Caltech
NASA Logo - Jet Propulsion Laboratory + View the NASA Portal
+ Center for Near-Earth Object Studies
JPL Home Earth Solar System Stars & Galaxies Technology
JPL Solar System Dynamics
BODIES ORBITS EPHEMERIDES TOOLS PHYSICAL DATA DISCOVERY FAQ SITE MAP
JPL Small-Body Database Browser
Search: [ help ]  
37068 (2000 UZ49)
Classification: Main-belt Asteroid          SPK-ID: 2037068
Ephemeris | Orbit Diagram | Orbital Elements | Mission Design | Physical Parameters | Discovery Circumstances | Close-Approach Data ]

[ hide orbit diagram ]

For accurate long-term ephemerides, please instead use our Horizons system.This orbit viewer was implemented using two-body methods, and hence should not be used for determining accurate long-term trajectories (over several years or decades) or planetary encounter circumstances.


[ revert to old Java-based viewer ]

Orbital Elements at Epoch 2459000.5 (2020-May-31.0) TDB
Reference: JPL 20 (heliocentric ecliptic J2000)
 Element Value Uncertainty (1-sigma)   Units 
e .1041587317263006 5.2812e-08  
a 2.962067813497356 1.9118e-08 au
q 2.653542586756175 1.5529e-07 au
i 2.932901184182776 4.5754e-06 deg
node 135.7696375631242 9.761e-05 deg
peri 228.2015310481256 9.9782e-05 deg
M 346.0152678578972 2.209e-05 deg
tp 2459072.834015373318
(2020-Aug-11.33401537)
0.00011442 TDB
period 1862.048215853712
5.10
1.8027e-05
4.936e-08
d
yr
n .1933354877359861 1.8718e-09 deg/d
Q 3.270593040238537 2.1109e-08 au
  Orbit Determination Parameters
   # obs. used (total)      1000  
   data-arc span      10376 days (28.41 yr)  
   first obs. used      1992-03-05  
   last obs. used      2020-08-01  
   planetary ephem.      DE431  
   SB-pert. ephem.      SB431-N16  
   condition code      0  
   norm. resid. RMS      .5684  
   source      ORB  
   producer      Otto Matic  
   solution date      2020-Aug-25 03:18:54  

Additional Information
 Earth MOID = 1.65224 au 
 Jupiter MOID = 2.1791 au 
 T_jup = 3.255 
[ show covariance matrix ]

Ephemeris | Orbit Diagram | Orbital Elements | Mission Design | Physical Parameters | Discovery Circumstances | Close-Approach Data ]

Physical Parameter Table
Parameter Symbol Value Units Sigma Reference Notes
absolute magnitude H 14.5   n/a MPO347790  
diameter diameter 3.486 km 0.393 urn:nasa:pds:neowise_diameters_albedos::2.0[mainbelt] (http://adsabs.harvard.edu/abs/2012ApJ...759L...8M)  
geometric albedo albedo 0.253   0.068 urn:nasa:pds:neowise_diameters_albedos::2.0[mainbelt] (http://adsabs.harvard.edu/abs/2012ApJ...759L...8M)  

37068 (2000 UZ49)          Discovered 2000-Oct-24 by LINEAR at Socorro
Reference: 20020227/Numbers.arcLast Updated: 2004-04-19

[ show close-approach data ]
Alternate Designations
 2000 UZ49 = 1999 NQ37 
Ephemeris | Orbit Diagram | Orbital Elements | Mission Design | Physical Parameters | Discovery Circumstances | Close-Approach Data ]
ABOUT SSD CREDITS/AWARDS PRIVACY/COPYRIGHT GLOSSARY LINKS
FirstGov 2020-Oct-01 14:16 UT
(server date/time)  
NASA Home Page
Site Manager:   Ryan S. Park
Webmaster  Alan B. Chamberlin